Location: Newark
(22.3060°N, 114.2134°E)
Time: 06:08:21
(UTC+00:00)

Vanguard 1 Rocket - Pass Details

Date: 05 August 2021
Orbit: 650 x 4226 km, 34.3° (Epoch: 23 September)

Event Time Altitude Azimuth Distance (km) Brightness Sun altitude
Exits shadow 20:05:25 - 194° (SSW) 7,092 11.5 -24.2°
Reaches altitude 10° 20:10:07 10° 184° (S) 6,686 11.5 -23.3°
Maximum altitude 20:28:05 26° 135° (SE) 6,075 11.7 -19.7°
Drops below altitude 10° 20:46:36 10° 88° (E) 7,070 13.0 -15.9°
Sets 20:53:03 0° 78° (ENE) 7,729 13.8 -14.6°
